Location: Bowman Observatory
(41.0326°N, 73.6210°W)
Time: 19:47:55
(UTC-04:00)

Cosmos 2297 - Visible Passes

Search period start: 25 August 2016 00:00
Search period end: 04 September 2016 00:00
Orbit: 835 x 860 km, 71.0° (Epoch: 25 August)

Date Brightness Start Highest point End Pass type
(mag) Time Alt. Az. Time Alt. Az. Time Alt. Az.
25 Aug 5.6 01:02:07 10° N 01:05:48 24° NE 01:05:48 24° NE visible
25 Aug 5.5 02:45:47 10° NW 02:47:40 21° NW 02:47:40 21° NW visible
26 Aug 5.7 00:48:48 10° N 00:52:10 23° NNE 00:52:10 23° NNE visible
26 Aug 5.7 02:32:26 10° NW 02:34:04 19° NW 02:34:04 19° NW visible
27 Aug 5.7 00:35:29 10° N 00:38:38 22° NNE 00:38:38 22° NNE visible
27 Aug 5.8 02:19:05 10° NNW 02:20:31 18° NW 02:20:31 18° NW visible
28 Aug 5.8 00:22:11 10° N 00:25:08 21° NNE 00:25:08 21° NNE visible
28 Aug 5.9 02:05:45 10° NNW 02:07:01 17° NW 02:07:01 17° NW visible
29 Aug 5.8 00:08:52 10° N 00:11:41 21° NNE 00:11:41 21° NNE visible
29 Aug 6.0 01:52:24 10° NNW 01:53:36 16° NW 01:53:36 16° NW visible
29 Aug 5.8 23:55:33 10° N 23:58:18 20° NNE 23:58:18 20° NNE visible
30 Aug 6.0 01:39:03 10° NNW 01:40:12 16° NW 01:40:12 16° NW visible
30 Aug 5.8 23:42:15 10° N 23:44:56 20° NNE 23:44:56 20° NNE visible
31 Aug 6.1 01:25:43 10° NNW 01:26:50 16° NW 01:26:50 16° NW visible
31 Aug 5.8 23:28:56 10° N 23:31:36 20° NNE 23:31:36 20° NNE visible
01 Sep 6.1 01:12:22 10° NNW 01:13:30 16° NW 01:13:30 16° NW visible
01 Sep 5.8 23:15:37 10° N 23:18:18 19° NNE 23:18:18 19° NNE visible
02 Sep 6.1 00:59:02 10° NNW 01:00:12 16° NW 01:00:12 16° NW visible
02 Sep 5.7 23:02:19 10° N 23:05:01 19° NNE 23:05:01 19° NNE visible
03 Sep 6.1 00:45:41 10° NNW 00:46:56 17° NNW 00:46:56 17° NNW visible
03 Sep 5.7 22:49:01 10° N 22:51:47 19° NNE 22:51:47 19° NNE visible
